Terug naar catalogus

GLOBAL-18

ActiefCommunicatieVLEO
NORAD 52196·PAYLOAD·🇺🇸 United States

Gelanceerd Apr 2, 2022 vanaf Rocket Lab Launch Complex 1

Loading…

Volgende Passages (komende 24 uur)

TLE

VersSource: Space-Track

Epoch: Sep 14, 2026, 05:29 UTC

1 52196U 22034B   26257.22851181  .00019869  00000-0  36171-3 0  9998
2 52196  52.9812 190.0518 0004064 155.5212 204.5988 15.49511620250750

Volg GLOBAL-18 in realtime met AllMySat

Download on the App Store